sat.trackr.live / text

‹ back to catalog

ONEWEB-0171

NORAD 48070 · 2021-025AE

PAYLOAD ACTIVE UNKNOWN

§ Identity

Operator
Country
UK
Launch date
2021-03-25
Launch site
VOSTO
Launch vehicle
Mass (kg)
RCS (m²)

Purposes: comms

External: N2YO · Heavens-Above · Gunter

§ Orbital elements

Epoch: 2026-09-20T02:06:35.984736Z

Period
109.63 min
Inclination
87.8914°
Eccentricity
0.0001848
Mean motion
13.13469193 rev/d
Perigee alt
1,208.4 km
Apogee alt
1,211.2 km
Semi-major
7,587.9 km
B*
6.5631e-4
RAAN
301.3454°
Arg perigee
91.0913°
Mean anomaly
269.0428°
Rev number
26,607

§ Raw data

ONEWEB-01711 48070U 21025AE  26263.08791649  .00000252  00000+0  65631-3 0  99942 48070  87.8914 301.3454 0001848  91.0913 269.0428 13.13469193266074

JSON: /api/v1/satellites/48070 · /tle

For live sub-satellite position, see the globe view (requires WebGL).

§ Visibility from observer

Set your observer location to see the next 7 days of passes ≥ 10°. The values pass through the URL so the page stays shareable.

No JS? Fill the form by hand. The geolocation button needs JavaScript.